GW0220 Weather Reports


Display with metric or nautical units.
time (UTC)temp
F
wind
direction
speed
MPH
gust
MPH
rain 1hr
in
rain 24hr
in
rain mn
in
humidity
%
barometer
mb
20260510082951 64 141 4.0 7.0 0.00 0.00 0.00 86 1013.4
20260510082450 64 136 5.0 6.0 0.00 0.00 0.00 87 1013.3
20260510081949 64 172 2.0 5.0 0.00 0.00 0.00 87 1013.4
20260510081445 64 158 5.0 6.0 0.00 0.00 0.00 87 1013.4
20260510080941 64 163 5.0 9.0 0.00 0.00 0.00 86 1013.6
20260510080439 64 175 5.0 9.0 0.00 0.00 0.00 85 1013.8
20260510075937 64 205 6.0 11.0 0.00 0.00 0.00 85 1013.8
20260510075435 65 178 8.0 10.0 0.00 0.00 0.00 84 1014.3
20260510074931 65 189 9.0 13.0 0.00 0.00 0.00 82 1014.5
20260510074429 66 176 7.0 17.0 0.00 0.00 0.00 79 1014.4
20260510073925 65 178 9.0 15.0 0.00 0.00 0.00 77 1014.5
20260510073420 62 188 11.0 16.0 0.00 0.00 0.00 83 1014.4
20260510072917 61 164 4.0 6.0 0.00 0.00 0.00 88 1014.1
20260510072414 61 174 3.0 3.0 0.00 0.00 0.00 90 1013.9
20260510071909 61 223 3.0 3.0 0.00 0.00 0.00 90 1013.9
20260510071406 62 269 0.0 0.0 0.00 0.00 0.00 89 1013.7
20260510070905 62 289 0.0 0.0 0.00 0.00 0.00 87 1013.6
20260510070401 63 298 1.0 2.0 0.00 0.00 0.00 84 1013.7
20260510065856 62 341 0.0 1.0 0.00 0.00 0.00 81 1013.6
20260510065353 62 13 1.0 2.0 0.00 0.00 0.00 82 1013.4
20260510064850 62 359 2.0 2.0 0.00 0.00 0.00 84 1013.8
20260510064348 61 342 0.0 1.0 0.00 0.00 0.00 85 1013.6
20260510063844 61 317 0.0 0.0 0.00 0.00 0.00 85 1013.4
20260510063340 62 318 0.0 0.0 0.00 0.00 0.00 84 1013.8
20260510062837 62 321 0.0 0.0 0.00 0.00 0.00 85 1013.8
20260510062333 62 320 0.0 0.0 0.00 0.00 0.00 85 1013.7
20260510061828 62 310 0.0 0.0 0.00 0.00 0.00 85 1013.7
20260510061325 62 311 0.0 0.0 0.00 0.00 0.00 85 1013.8
20260510060821 62 313 0.0 0.0 0.00 0.00 0.00 83 1014.2
20260510060319 62 313 0.0 0.0 0.00 0.00 0.00 85 1014.2
20260510055815 61 312 0.0 0.0 0.00 0.00 0.00 86 1014.3
20260510055314 61 314 0.0 0.0 0.00 0.00 0.00 86 1014.3
20260510054813 61 316 0.0 0.0 0.00 0.00 0.00 87 1014.1
20260510054309 62 317 0.0 0.0 0.00 0.00 0.00 86 1014.0
20260510053804 62 321 0.0 1.0 0.00 0.00 0.00 85 1014.0
20260510053300 62 324 0.0 0.0 0.00 0.00 0.00 84 1013.7
20260510052756 63 328 0.0 1.0 0.00 0.00 0.00 84 1013.2
20260510052252 62 351 1.0 2.0 0.00 0.00 0.00 80 1013.6
20260510051748 61 359 1.0 2.0 0.00 0.00 0.00 85 1013.3
20260510051245 60 309 0.0 0.0 0.00 0.00 0.00 91 1013.3
20260510050742 60 299 0.0 0.0 0.00 0.00 0.00 92 1013.3
20260510050239 59 298 0.0 0.0 0.00 0.00 0.00 91 1013.3
20260510045736 59 298 0.0 0.0 0.00 0.01 0.01 91 1013.2
20260510045232 59 299 0.0 0.0 0.00 0.01 0.01 91 1013.2
20260510044729 60 300 0.0 0.0 0.00 0.01 0.01 91 1013.2
20260510044227 60 302 0.0 0.0 0.00 0.01 0.01 91 1013.0
20260510043722 60 302 0.0 0.0 0.00 0.01 0.01 90 1012.9
20260510043219 60 302 0.0 0.0 0.00 0.01 0.01 90 1012.8
20260510042716 60 304 0.0 0.0 0.00 0.01 0.01 90 1012.9
20260510042212 60 305 0.0 0.0 0.00 0.01 0.01 90 1012.7
20260510041709 60 305 0.0 0.0 0.00 0.01 0.01 90 1012.7
20260510041207 60 304 0.0 0.0 0.00 0.01 0.01 90 1012.6
20260510040703 60 304 0.0 0.0 0.00 0.01 0.01 89 1012.8
20260510040200 60 304 0.0 0.0 0.00 0.01 0.01 89 1012.9
20260510035655 60 304 0.0 0.0 0.00 0.01 0.01 89 1013.0
20260510035151 59 302 0.0 0.0 0.00 0.01 0.01 87 1013.2
20260510034648 59 302 0.0 0.0 0.00 0.01 0.01 87 1013.1
20260510034145 59 302 0.0 0.0 0.00 0.01 0.01 86 1013.0
20260510033641 60 302 0.0 0.0 0.00 0.01 0.01 85 1012.8
20260510033139 60 302 0.0 0.0 0.00 0.01 0.01 84 1012.7
20260510032635 60 303 0.0 0.0 0.00 0.01 0.01 82 1012.5
20260510032131 61 302 0.0 0.0 0.00 0.01 0.01 81 1012.4
20260510031626 61 302 0.0 0.0 0.00 0.01 0.01 80 1012.4
20260510031123 62 303 0.0 0.0 0.00 0.01 0.01 78 1012.3
20260510030617 64 305 0.0 0.0 0.00 0.01 0.01 76 1012.0
20260510030115 64 306 0.0 0.0 0.00 0.01 0.01 74 1011.8
20260510025612 64 304 0.0 0.0 0.00 0.01 0.01 75 1011.7
20260510025109 63 298 0.0 0.0 0.00 0.01 0.01 77 1011.7
20260510024606 63 294 0.0 0.0 0.00 0.01 0.01 75 1011.7
20260510024103 63 292 0.0 0.0 0.00 0.01 0.01 77 1011.7
20260510023559 63 288 0.0 0.0 0.00 0.01 0.01 77 1011.5
20260510023056 63 285 0.0 0.0 0.00 0.01 0.01 77 1011.4
20260510022555 63 282 0.0 0.0 0.00 0.01 0.01 75 1011.3
20260510022050 64 282 0.0 0.0 0.00 0.01 0.01 73 1011.2
20260510021546 64 282 0.0 0.0 0.00 0.01 0.01 73 1011.1
20260510021044 65 281 0.0 0.0 0.00 0.01 0.01 72 1011.2
20260510020538 65 281 0.0 0.0 0.00 0.01 0.01 71 1011.0
20260510020034 65 280 0.0 0.0 0.00 0.01 0.01 70 1011.1
20260510015530 66 279 0.0 0.0 0.00 0.01 0.01 67 1010.9
20260510015026 66 275 0.0 0.0 0.00 0.01 0.01 65 1010.9
20260510014523 67 273 0.0 0.0 0.00 0.01 0.01 66 1010.9
20260510014020 68 267 0.0 0.0 0.00 0.01 0.01 61 1010.8
20260510013514 69 261 0.0 0.0 0.00 0.01 0.01 60 1010.6
20260510013010 70 247 0.0 0.0 0.00 0.01 0.01 61 1010.5
20260510012505 71 225 0.0 0.0 0.00 0.01 0.01 55 1010.5
20260510012001 72 209 0.0 0.0 0.00 0.01 0.01 55 1010.5
20260510011455 73 177 0.0 1.0 0.00 0.01 0.01 55 1010.1
20260510010951 73 154 0.0 1.0 0.00 0.01 0.01 52 1010.3
20260510010443 74 154 1.0 2.0 0.00 0.01 0.01 52 1010.2
20260510005940 74 154 1.0 2.0 0.00 0.01 0.01 51 1010.1
20260510005436 74 161 0.0 0.0 0.00 0.01 0.01 52 1010.0
20260510004933 75 157 2.0 3.0 0.00 0.01 0.01 52 1010.1
20260510004430 75 141 3.0 3.0 0.00 0.01 0.01 50 1009.9
20260510003928 75 184 3.0 5.0 0.00 0.01 0.01 51 1009.9
20260510003425 75 106 2.0 3.0 0.00 0.01 0.01 50 1010.0
20260510002924 76 157 1.0 3.0 0.00 0.01 0.01 51 1009.9
20260510002416 76 124 0.0 2.0 0.00 0.01 0.01 52 1009.9
20260510001912 77 155 2.0 5.0 0.00 0.01 0.01 51 1009.9
20260510001410 77 149 3.0 6.0 0.00 0.01 0.01 50 1010.0
20260510000907 77 166 5.0 7.0 0.00 0.01 0.01 49 1009.7
20260510000404 78 182 6.0 8.0 0.00 0.01 0.01 48 1010.1
20260509235900 78 155 3.0 6.0 0.00 0.01 0.01 48 1010.0
20260509235356 78 161 5.0 7.0 0.00 0.01 0.01 48 1010.1
20260509234852 79 178 4.0 5.0 0.00 0.01 0.01 48 1010.1
20260509234350 80 156 5.0 7.0 0.00 0.01 0.01 48 1010.0
20260509233848 80 175 3.0 5.0 0.00 0.01 0.01 45 1010.0
20260509233345 81 158 3.0 3.0 0.00 0.01 0.01 44 1009.9
20260509232840 81 179 4.0 5.0 0.00 0.01 0.01 42 1010.1
20260509232339 81 177 4.0 6.0 0.00 0.01 0.01 44 1009.8
20260509231834 80 151 2.0 6.0 0.00 0.01 0.01 44 1010.0
20260509231332 81 173 0.0 5.0 0.00 0.01 0.01 43 1010.3
20260509230829 83 166 4.0 6.0 0.00 0.01 0.01 44 1010.1
20260509230326 83 236 0.0 2.0 0.00 0.01 0.01 38 1009.9
20260509225821 83 303 0.0 0.0 0.00 0.01 0.01 35 1010.1
20260509225318 83 301 0.0 0.0 0.00 0.01 0.01 33 1010.1
20260509224814 83 304 0.0 1.0 0.00 0.01 0.01 34 1010.1
20260509224310 83 59 1.0 2.0 0.00 0.01 0.01 37 1010.1
20260509223807 83 308 0.0 0.0 0.00 0.01 0.01 37 1010.3
20260509223304 82 157 2.0 5.0 0.00 0.01 0.01 36 1010.2
20260509222801 82 17 0.0 2.0 0.00 0.01 0.01 34 1010.5
20260509222256 83 66 1.0 2.0 0.00 0.01 0.01 37 1010.5
20260509221752 83 89 2.0 2.0 0.00 0.01 0.01 36 1010.3
20260509221249 85 259 0.0 0.0 0.00 0.01 0.01 34 1010.3
20260509220745 83 291 0.0 0.0 0.00 0.01 0.01 32 1010.2
20260509220242 83 341 2.0 3.0 0.00 0.01 0.01 38 1010.3
20260509215737 84 327 1.0 2.0 0.00 0.01 0.01 32 1010.1
20260509215234 84 192 2.0 3.0 0.00 0.01 0.01 31 1010.2
20260509214731 83 301 0.0 0.0 0.00 0.01 0.01 32 1010.1
20260509214228 82 288 0.0 2.0 0.00 0.01 0.01 31 1010.6
20260509213725 83 307 0.0 1.0 0.00 0.01 0.01 30 1010.6
20260509213220 82 330 0.0 1.0 0.00 0.01 0.01 31 1010.5
20260509212718 82 313 0.0 6.0 0.00 0.01 0.01 37 1010.3
20260509212215 82 51 4.0 5.0 0.00 0.01 0.01 32 1010.3
20260509211711 83 45 1.0 2.0 0.00 0.01 0.01 32 1010.6
20260509211208 83 271 0.0 0.0 0.00 0.01 0.01 36 1010.6
20260509210704 82 22 3.0 5.0 0.00 0.01 0.01 34 1010.7
20260509210202 83 108 1.0 5.0 0.00 0.01 0.01 33 1010.8
20260509205702 83 352 0.0 1.0 0.00 0.01 0.01 32 1010.8
20260509205201 83 305 0.0 2.0 0.00 0.01 0.01 31 1010.9
20260509204657 84 300 2.0 3.0 0.00 0.01 0.01 37 1010.9
20260509204154 82 296 0.0 2.0 0.00 0.01 0.01 32 1010.9
20260509203650 82 96 1.0 3.0 0.00 0.01 0.01 32 1011.0
20260509203148 82 117 5.0 6.0 0.00 0.01 0.01 33 1011.0
20260509202643 82 99 2.0 3.0 0.00 0.01 0.01 32 1010.9
20260509202138 82 171 2.0 2.0 0.00 0.01 0.01 40 1011.0
20260509201634 81 269 1.0 5.0 0.00 0.01 0.01 36 1011.1
20260509201132 82 305 4.0 5.0 0.00 0.01 0.01 36 1011.2
20260509200627 82 137 3.0 5.0 0.00 0.01 0.01 39 1011.5
20260509200123 82 334 0.0 5.0 0.00 0.01 0.01 37 1011.3
20260509195619 81 222 3.0 3.0 0.00 0.01 0.01 40 1011.3
20260509195114 81 304 0.0 2.0 0.00 0.01 0.01 42 1011.4
20260509194613 81 228 0.0 6.0 0.00 0.01 0.01 37 1011.5
20260509194111 81 102 3.0 5.0 0.00 0.01 0.01 46 1011.5
20260509193607 81 96 2.0 6.0 0.00 0.01 0.01 41 1011.5
20260509193103 81 240 1.0 3.0 0.00 0.01 0.01 40 1011.6
20260509192600 80 161 5.0 6.0 0.00 0.01 0.01 40 1011.5
20260509192054 81 115 4.0 6.0 0.00 0.01 0.01 41 1011.4
20260509191549 81 307 0.0 1.0 0.00 0.01 0.01 52 1011.3
20260509191045 81 162 3.0 5.0 0.00 0.01 0.01 38 1011.7
20260509190542 81 156 4.0 6.0 0.00 0.01 0.01 42 1011.6
20260509190040 81 266 0.0 1.0 0.00 0.01 0.01 46 1011.5
20260509185537 80 257 1.0 2.0 0.00 0.01 0.01 42 1011.5
20260509185033 80 165 3.0 9.0 0.00 0.01 0.01 41 1011.6
20260509184532 81 157 5.0 7.0 0.00 0.01 0.01 42 1011.6
20260509184028 81 195 0.0 2.0 0.00 0.01 0.01 44 1011.7
20260509183523 79 12 0.0 2.0 0.00 0.01 0.01 39 1011.6
20260509183019 80 267 2.0 3.0 0.00 0.01 0.01 39 1011.7
20260509182516 79 214 0.0 1.0 0.00 0.01 0.01 41 1011.9
20260509182013 79 130 4.0 5.0 0.00 0.01 0.01 45 1011.8
20260509181511 80 126 7.0 7.0 0.00 0.01 0.01 44 1011.9
20260509181010 80 156 3.0 6.0 0.00 0.01 0.01 41 1011.8
20260509180503 81 181 1.0 5.0 0.00 0.01 0.01 38 1011.8
20260509180002 80 172 3.0 3.0 0.00 0.01 0.01 40 1012.1
20260509175456 79 169 3.0 5.0 0.00 0.01 0.01 40 1011.9
20260509174954 79 112 2.0 5.0 0.00 0.01 0.01 37 1012.0
20260509174450 79 274 0.0 2.0 0.00 0.01 0.01 44 1012.0
20260509173945 79 156 3.0 5.0 0.00 0.01 0.01 50 1012.1
20260509173445 79 189 3.0 5.0 0.00 0.01 0.01 45 1012.1
20260509172942 77 62 1.0 6.0 0.00 0.01 0.01 41 1012.1
20260509172439 77 298 1.0 2.0 0.00 0.01 0.01 58 1012.3
20260509171934 77 320 1.0 6.0 0.00 0.01 0.01 58 1012.3
20260509171431 77 318 0.0 3.0 0.00 0.01 0.01 61 1012.2
20260509170927 78 303 2.0 3.0 0.00 0.01 0.01 60 1012.3
20260509170423 78 213 0.0 3.0 0.00 0.01 0.01 64 1012.2
20260509165919 77 307 0.0 2.0 0.00 0.01 0.01 64 1012.4
20260509165413 78 50 3.0 5.0 0.00 0.01 0.01 61 1012.5
20260509164909 77 359 0.0 2.0 0.00 0.01 0.01 65 1012.4
20260509164405 77 306 0.0 1.0 0.00 0.01 0.01 65 1012.5
20260509163901 76 299 0.0 3.0 0.00 0.01 0.01 68 1012.5
20260509163358 76 317 0.0 0.0 0.00 0.01 0.01 70 1012.3
20260509162857 76 265 0.0 2.0 0.00 0.01 0.01 67 1012.2
20260509162356 75 244 1.0 2.0 0.00 0.01 0.01 69 1012.4
20260509161852 75 244 2.0 3.0 0.00 0.01 0.01 71 1012.4
20260509161348 75 271 1.0 5.0 0.00 0.01 0.01 73 1012.2
20260509160844 76 269 2.0 3.0 0.00 0.01 0.01 72 1012.4
20260509160340 75 259 1.0 3.0 0.00 0.01 0.01 72 1012.5
20260509155835 74 226 0.0 2.0 0.00 0.01 0.01 75 1012.4
20260509155332 73 269 0.0 2.0 0.00 0.01 0.01 76 1012.6
20260509154828 72 223 1.0 2.0 0.00 0.01 0.01 78 1012.5
20260509154325 73 289 4.0 6.0 0.00 0.01 0.01 80 1012.6
20260509153822 73 281 1.0 3.0 0.00 0.01 0.01 80 1012.6
20260509153318 73 264 3.0 3.0 0.00 0.01 0.01 80 1012.6
20260509152815 74 150 4.0 5.0 0.00 0.01 0.01 79 1012.6
20260509152311 74 183 1.0 2.0 0.00 0.01 0.01 75 1012.4
20260509151809 74 212 3.0 3.0 0.00 0.01 0.01 80 1012.5
20260509151305 73 156 2.0 3.0 0.00 0.01 0.01 77 1012.4
20260509150804 73 239 2.0 3.0 0.00 0.01 0.01 77 1012.3
20260509150301 73 199 2.0 3.0 0.00 0.01 0.01 79 1012.4
20260509145758 72 277 0.0 2.0 0.00 0.01 0.01 83 1012.4
20260509145258 71 239 2.0 5.0 0.00 0.01 0.01 84 1012.3
20260509144754 70 286 0.0 1.0 0.00 0.01 0.01 84 1012.5
20260509144251 70 254 1.0 3.0 0.00 0.01 0.01 84 1012.5
20260509143748 69 326 0.0 2.0 0.00 0.01 0.01 86 1012.4
20260509143246 69 235 2.0 2.0 0.00 0.01 0.01 85 1012.2
20260509142741 69 260 0.0 1.0 0.00 0.01 0.01 86 1012.3
20260509142238 68 313 0.0 1.0 0.00 0.01 0.01 86 1012.3
20260509141734 69 283 1.0 3.0 0.00 0.01 0.01 85 1012.3
20260509141231 69 245 0.0 1.0 0.00 0.01 0.01 85 1012.3
20260509140728 68 309 0.0 0.0 0.00 0.01 0.01 87 1012.2
20260509140225 67 343 1.0 2.0 0.00 0.01 0.01 91 1012.2
20260509135722 65 323 0.0 1.0 0.00 0.01 0.01 94 1012.1
20260509135220 65 263 0.0 0.0 0.00 0.01 0.01 97 1012.2
20260509134717 65 260 0.0 0.0 0.00 0.01 0.01 98 1012.2
20260509134214 63 253 1.0 2.0 0.00 0.01 0.01 99 1012.1
20260509133711 63 276 1.0 2.0 0.00 0.01 0.01 99 1012.0
20260509133208 62 324 0.0 1.0 0.00 0.01 0.01 99 1012.0
20260509132707 61 25 0.0 1.0 0.00 0.01 0.01 99 1011.9
20260509132205 61 19 1.0 2.0 0.00 0.01 0.01 99 1011.7
20260509131701 61 348 1.0 1.0 0.00 0.01 0.01 99 1011.7
20260509131158 61 318 1.0 1.0 0.00 0.01 0.01 99 1011.8
20260509130653 61 312 0.0 1.0 0.00 0.01 0.01 99 1011.9
20260509130150 60 313 0.0 0.0 0.00 0.01 0.01 99 1012.0
20260509125646 60 300 0.0 0.0 0.00 0.01 0.01 99 1011.7
20260509125143 59 294 0.0 0.0 0.00 0.01 0.01 99 1011.9
20260509124640 58 293 0.0 0.0 0.00 0.01 0.01 99 1011.6
20260509124137 57 293 0.0 0.0 0.00 0.01 0.01 99 1011.8
20260509123635 58 295 0.0 0.0 0.00 0.01 0.01 99 1011.6
20260509123131 58 295 0.0 0.0 0.00 0.01 0.01 99 1011.4
20260509122627 56 295 0.0 0.0 0.00 0.01 0.01 99 1011.4
20260509122124 54 296 0.0 0.0 0.00 0.01 0.01 99 1011.3
20260509121621 53 296 0.0 0.0 0.00 0.01 0.01 99 1011.5
20260509121119 51 296 0.0 0.0 0.00 0.01 0.01 99 1011.4
20260509120616 51 296 0.0 0.0 0.00 0.01 0.01 99 1011.5
20260509120115 51 296 0.0 0.0 0.00 0.01 0.01 99 1011.4
20260509115612 51 296 0.0 0.0 0.00 0.01 0.01 99 1011.2
20260509115109 50 296 0.0 0.0 0.00 0.01 0.01 99 1011.0
20260509114607 51 296 0.0 0.0 0.00 0.01 0.01 99 1011.0
20260509114106 51 296 0.0 0.0 0.00 0.01 0.01 99 1011.0
20260509113603 51 296 0.0 0.0 0.00 0.01 0.01 99 1010.9
20260509113101 51 295 0.0 0.0 0.00 0.01 0.01 99 1010.8
20260509112557 50 295 0.0 0.0 0.00 0.01 0.01 99 1010.9
20260509112054 50 296 0.0 0.0 0.00 0.01 0.01 99 1011.0
20260509111551 51 296 0.0 0.0 0.00 0.01 0.01 99 1010.9
20260509111048 51 296 0.0 0.0 0.00 0.01 0.01 99 1010.7
20260509110545 51 296 0.0 0.0 0.00 0.01 0.01 99 1010.9
20260509110042 51 296 0.0 0.0 0.00 0.01 0.01 99 1010.7
20260509105541 51 296 0.0 0.0 0.00 0.01 0.01 99 1010.5
20260509105038 51 295 0.0 0.0 0.00 0.01 0.01 99 1010.7
20260509104535 51 295 0.0 0.0 0.00 0.01 0.01 99 1010.8
20260509104032 51 295 0.0 0.0 0.00 0.01 0.01 99 1010.6
20260509103529 51 295 0.0 0.0 0.00 0.01 0.01 99 1010.5
20260509103027 51 295 0.0 0.0 0.00 0.01 0.01 99 1010.6
20260509102524 51 295 0.0 0.0 0.00 0.01 0.01 99 1010.7
20260509102021 51 295 0.0 0.0 0.00 0.01 0.01 99 1010.6
20260509101517 51 295 0.0 0.0 0.00 0.01 0.01 99 1010.6
20260509101015 51 295 0.0 0.0 0.00 0.01 0.01 99 1010.3
20260509100512 51 295 0.0 0.0 0.00 0.01 0.01 99 1010.6
20260509100009 52 295 0.0 0.0 0.00 0.01 0.01 99 1010.7
20260509095505 52 295 0.0 0.0 0.00 0.01 0.01 99 1010.6
20260509095003 52 295 0.0 0.0 0.00 0.01 0.01 99 1010.6
20260509094459 51 295 0.0 0.0 0.00 0.01 0.01 99 1010.7
20260509093956 52 296 0.0 0.0 0.00 0.01 0.01 99 1010.6
20260509093454 52 296 0.0 0.0 0.00 0.01 0.01 99 1010.7
20260509092951 52 296 0.0 0.0 0.00 0.01 0.01 99 1010.7
20260509092449 53 296 0.0 0.0 0.00 0.01 0.01 99 1010.7
20260509091948 53 296 0.0 0.0 0.05 0.01 0.01 99 1010.7
20260509091444 53 296 0.0 0.0 0.05 0.01 0.01 99 1010.7
20260509090941 53 295 0.0 0.0 0.00 0.00 0.00 99 1010.5
20260509090439 53 295 0.0 0.0 0.00 0.00 0.00 99 1010.7
20260509085936 53 295 0.0 0.0 0.00 0.00 0.00 99 1010.7
20260509085433 54 295 0.0 1.0 0.00 0.00 0.00 99 1010.8
20260509084929 53 295 0.0 0.0 0.00 0.00 0.00 99 1010.9
20260509084426 53 296 0.0 0.0 0.00 0.00 0.00 99 1010.8
20260509083924 53 296 0.0 0.0 0.00 0.00 0.00 99 1011.0
20260509083421 54 295 1.0 1.0 0.00 0.00 0.00 99 1011.0